Weather reports worldwide

Advertisment
Ponza, Italy (16280): temperature & dewpoint: 20.10.2020 21:00:00 - 26.10.2020 21:00:00 (CET)Ponza, Italy (16280): wind speed & gusts: 20.10.2020 21:00:00 - 26.10.2020 21:00:00 (CET)Ponza, Italy (16280): wind direction: 20.10.2020 21:00:00 - 26.10.2020 21:00:00 (CET)Ponza, Italy (16280): reduced air pressure: 20.10.2020 21:00:00 - 26.10.2020 21:00:00 (CET)Ponza, Italy (16280): visibility: 20.10.2020 21:00:00 - 26.10.2020 21:00:00 (CET)Ponza, Italy (16280): sunshine duration: 20.10.2020 21:00:00 - 26.10.2020 21:00:00 (CET)
Date & Time tt [°C] td [°C] ff [km/h] ff [kn] fx [km/h] fx [kn] dd ppp [hPa] vv [km] sd [min]
26.10.2020 21:00:00 18,4 17,1 29 16 48 26 S 1010,4 10 -
26.10.2020 20:00:00 18,8 17,8 26 14 45 24 S 1010,9 10 -
26.10.2020 19:00:00 18,6 17,3 22 12 - - SSE 1011,2 10 -
26.10.2020 18:00:00 18,6 17,4 15 8 34 19 SSE 1010,3 10 -
26.10.2020 17:00:00 18,6 17,4 21 11 37 20 SSE 1010,7 10 0
26.10.2020 16:00:00 18,8 17,1 18 10 - - SSE 1011,3 10 12
26.10.2020 15:00:00 20,0 15,9 9 5 22 12 SSE 1012,4 20 60
26.10.2020 14:00:00 20,4 16,0 15 8 30 16 S 1013,4 20 48
26.10.2020 13:00:00 19,2 15,3 18 10 - - S 1013,9 10 24
26.10.2020 12:00:00 19,0 15,5 13 7 24 13 SSE 1014,7 10 24
26.10.2020 11:00:00 18,0 15,2 4 2 29 16 N 1014,7 10 36
26.10.2020 10:00:00 18,0 15,1 4 2 - - N 1014,7 10 0
26.10.2020 09:00:00 17,4 14,5 24 13 37 20 E 1014,8 20 36
26.10.2020 08:00:00 17,2 13,7 4 2 30 16 N 1014,8 20 36
26.10.2020 07:00:00 17,0 14,3 9 5 - - SSE 1015,4 20 0
26.10.2020 06:00:00 17,0 13,5 13 7 22 12 SSE 1015,8 20 -
26.10.2020 05:00:00 17,0 13,5 11 6 - - S 1015,7 15 -
26.10.2020 04:00:00 17,0 14,1 13 7 - - S 1015,9 15 -
26.10.2020 03:00:00 17,0 13,7 11 6 22 12 S 1016,1 10 -
26.10.2020 02:00:00 17,0 14,7 13 7 - - S 1016,5 10 -
26.10.2020 01:00:00 17,0 15,0 11 6 - - SW 1016,8 10 -
26.10.2020 00:00:00 16,8 15,3 9 5 - - SW 1016,8 10 -
25.10.2020 23:00:00 17,0 16,0 11 6 18 10 W 1016,8 10 -
25.10.2020 22:00:00 17,2 15,5 13 7 - - W 1016,8 10 -
25.10.2020 21:00:00 17,4 15,7 11 6 18 10 W 1016,7 10 -
25.10.2020 20:00:00 16,8 15,2 11 6 - - W 1016,8 10 -
25.10.2020 19:00:00 17,0 15,2 11 6 - - W 1016,8 10 -
25.10.2020 18:00:00 17,6 14,9 8 4 16 9 W 1016,7 10 -
25.10.2020 17:00:00 18,0 14,5 13 7 22 12 W 1016,5 10 -
25.10.2020 16:00:00 18,8 14,9 11 6 - - W 1016,6 10 -
25.10.2020 15:00:00 19,2 14,7 11 6 23 12 W 1016,7 10 60
25.10.2020 14:00:00 19,4 15,9 11 6 20 11 W 1016,7 15 60
25.10.2020 13:00:00 19,2 15,7 13 7 - - W 1017,4 10 60
25.10.2020 12:00:00 19,2 15,7 15 8 - - WNW 1017,8 15 60
25.10.2020 11:00:00 19,0 14,9 9 5 20 11 NW 1017,7 10 60
25.10.2020 10:00:00 18,0 14,5 9 5 - - NNW 1017,6 10 60
25.10.2020 09:00:00 17,8 14,5 15 8 21 12 NNW 1017,3 15 60
25.10.2020 08:00:00 17,6 14,1 18 10 - - NNW 1016,9 15 60
25.10.2020 07:00:00 16,4 15,8 15 8 - - NW 1016,0 10 0
25.10.2020 06:00:00 16,6 15,0 16 9 29 15 WNW 1016,1 10 -
25.10.2020 05:00:00 16,6 14,8 13 7 29 16 W 1016,1 10 -
25.10.2020 04:00:00 16,4 14,8 13 7 - - W 1016,1 10 -
25.10.2020 03:00:00 17,0 13,9 22 12 37 20 WNW 1016,7 10 -
25.10.2020 02:00:00 17,0 13,7 22 12 41 22 W 1016,7 10 -
25.10.2020 01:00:00 - - - - - - - - - -
25.10.2020 00:00:00 17,4 14,7 18 10 35 19 W 1016,8 10 -
24.10.2020 23:00:00 17,4 14,9 21 11 43 23 W 1016,8 10 -
24.10.2020 22:00:00 17,6 13,3 21 11 - - W 1017,7 10 -
24.10.2020 21:00:00 18,0 13,9 4 2 37 20 N 1017,3 15 -
24.10.2020 20:00:00 18,0 13,5 4 2 39 21 N 1017,5 15 -
24.10.2020 19:00:00 18,6 14,7 18 10 - - W 1017,5 20 -
24.10.2020 18:00:00 18,8 15,7 15 8 27 15 W 1017,5 20 -
24.10.2020 17:00:00 19,0 15,9 4 2 - - N 1017,6 20 36
24.10.2020 16:00:00 19,4 16,8 4 2 - - N 1017,6 20 60
24.10.2020 15:00:00 19,0 15,9 13 7 28 15 W 1018,0 15 0
24.10.2020 14:00:00 18,8 15,5 15 8 28 15 W 1018,4 15 0
24.10.2020 13:00:00 19,0 15,3 24 13 - - WSW 1018,6 10 0
24.10.2020 12:00:00 18,6 16,9 15 8 25 14 WSW 1018,8 30 0
24.10.2020 11:00:00 19,0 17,5 5 3 - - WSW 1018,9 10 0
24.10.2020 10:00:00 18,4 17,4 15 8 - - WNW 1020,0 10 0
24.10.2020 09:00:00 18,6 17,3 34 18 45 24 W 1019,4 10 0
24.10.2020 08:00:00 18,6 17,6 28 15 41 22 WNW 1019,0 10 0
24.10.2020 07:00:00 19,0 18,2 15 8 - - SSE 1018,8 10 -
24.10.2020 06:00:00 18,8 18,2 13 7 22 12 SSE 1019,3 20 -
24.10.2020 05:00:00 19,0 18,2 11 6 - - SSE 1019,6 30 -
24.10.2020 04:00:00 19,0 17,8 11 6 - - SSE 1019,7 30 -
24.10.2020 03:00:00 19,0 17,3 4 2 - - N 1019,9 30 -
24.10.2020 02:00:00 19,0 17,1 4 2 23 12 N 1020,4 30 -
24.10.2020 01:00:00 18,8 16,2 16 9 - - E 1020,5 30 -
24.10.2020 00:00:00 18,6 16,6 18 10 - - ESE 1020,8 30 -
23.10.2020 23:00:00 18,2 16,5 9 5 23 12 ESE 1020,9 30 -
23.10.2020 22:00:00 18,0 16,7 9 5 - - SE 1020,9 30 -
23.10.2020 21:00:00 18,0 16,5 9 5 17 9 SE 1021,0 30 -
23.10.2020 20:00:00 18,0 16,3 11 6 - - S 1021,2 30 -
23.10.2020 19:00:00 18,2 16,5 11 6 - - S 1021,6 30 -
23.10.2020 18:00:00 18,4 16,5 11 6 - - SSE 1021,4 30 -
23.10.2020 17:00:00 18,6 16,8 8 4 - - SSE 1021,2 20 0
23.10.2020 16:00:00 19,8 17,0 8 4 - - SSE 1021,4 20 60
23.10.2020 15:00:00 20,4 16,8 5 3 - - SE 1021,5 20 60
23.10.2020 14:00:00 20,6 16,8 4 2 16 8 N 1021,5 20 18
23.10.2020 13:00:00 20,6 17,0 13 7 - - SSW 1022,5 20 0
23.10.2020 12:00:00 21,0 17,2 4 2 14 8 N 1022,6 10 18
23.10.2020 11:00:00 20,6 16,8 4 2 - - N 1023,1 10 24
23.10.2020 10:00:00 20,4 16,6 4 2 - - N 1022,9 10 60
23.10.2020 09:00:00 19,4 17,2 4 2 - - N 1022,8 10 24
23.10.2020 08:00:00 17,8 15,8 4 2 - - N 1022,9 10 36
23.10.2020 07:00:00 17,6 16,3 8 4 - - S 1022,8 10 0
23.10.2020 06:00:00 17,8 16,1 5 3 - - S 1023,1 10 -
23.10.2020 05:00:00 17,2 16,2 8 4 - - SSE 1023,1 10 -
23.10.2020 04:00:00 17,4 16,6 8 4 - - S 1023,0 10 -
23.10.2020 03:00:00 - - - - - - - - - -
23.10.2020 02:00:00 17,6 16,5 11 6 - - SE 1023,7 10 -
23.10.2020 01:00:00 17,6 16,3 9 5 - - SE 1023,9 10 -
23.10.2020 00:00:00 - - - - - - - - - -
22.10.2020 23:00:00 17,8 16,3 11 6 - - S 1024,2 10 -
22.10.2020 22:00:00 18,0 16,3 13 7 - - SSE 1024,3 10 -
22.10.2020 21:00:00 18,0 16,3 11 6 - - SSE 1024,2 10 -
22.10.2020 20:00:00 17,4 15,6 11 6 - - SSE 1024,2 10 -
22.10.2020 19:00:00 17,4 15,7 15 8 - - ESE 1024,2 10 -
22.10.2020 18:00:00 17,6 15,0 11 6 - - SE 1023,9 10 -
22.10.2020 17:00:00 18,0 14,7 13 7 - - ESE 1023,9 20 60
22.10.2020 16:00:00 18,8 15,1 16 9 - - ESE 1023,8 25 12
22.10.2020 15:00:00 19,0 14,7 16 9 - - ESE 1023,8 20 42
22.10.2020 14:00:00 20,4 15,4 16 9 24 13 E 1023,8 20 60
22.10.2020 13:00:00 19,6 15,7 18 10 - - E 1024,0 20 60
22.10.2020 12:00:00 20,0 16,4 18 10 27 15 E 1025,2 20 60
22.10.2020 11:00:00 19,6 14,6 18 10 - - E 1025,2 20 60
22.10.2020 10:00:00 - - - - - - - - - -
22.10.2020 09:00:00 18,0 13,9 15 8 - - E 1024,9 20 60
22.10.2020 08:00:00 17,4 14,3 13 7 - - ESE 1025,0 20 60
22.10.2020 07:00:00 17,0 14,5 13 7 - - ESE 1024,8 20 0
22.10.2020 06:00:00 17,0 14,3 13 7 - - SE 1024,5 20 -
22.10.2020 05:00:00 - - - - - - - - - -
22.10.2020 04:00:00 17,0 13,5 9 5 - - ESE 1024,3 20 -
22.10.2020 03:00:00 17,0 14,1 13 7 - - SE 1024,1 20 -
22.10.2020 02:00:00 - - - - - - - - - -
22.10.2020 01:00:00 17,0 13,9 13 7 - - ESE 1024,5 20 -
22.10.2020 00:00:00 17,0 13,9 13 7 - - ESE 1024,5 20 -
21.10.2020 23:00:00 - - - - - - - - - -
21.10.2020 22:00:00 17,4 13,9 15 8 - - ESE 1024,2 20 -
21.10.2020 21:00:00 17,4 13,9 16 9 - - ESE 1024,2 20 -
21.10.2020 20:00:00 - - - - - - - - - -
21.10.2020 19:00:00 17,6 12,7 18 10 - - SE 1023,8 10 -
21.10.2020 18:00:00 - - - - - - - - - -
21.10.2020 17:00:00 18,0 12,9 15 8 - - ESE 1024,0 10 60
21.10.2020 16:00:00 18,0 12,0 15 8 - - ESE 1024,1 10 60
21.10.2020 15:00:00 20,0 12,7 11 6 - - E 1024,1 10 48
21.10.2020 14:00:00 20,2 12,7 11 6 20 11 E 1024,2 10 48
21.10.2020 13:00:00 20,4 12,4 4 2 - - N 1024,3 10 30
21.10.2020 12:00:00 19,0 11,8 4 2 26 14 N 1024,9 15 60
21.10.2020 11:00:00 19,8 12,8 4 2 26 14 N 1024,8 15 60
21.10.2020 10:00:00 18,4 11,9 18 10 - - ESE 1024,9 10 60
21.10.2020 09:00:00 17,2 11,7 16 9 28 15 ESE 1024,1 10 60
21.10.2020 08:00:00 16,4 14,8 15 8 26 14 E 1024,1 10 24
21.10.2020 07:00:00 16,4 14,8 13 7 - - ESE 1024,2 10 0
21.10.2020 06:00:00 16,0 14,0 15 8 25 14 E 1023,7 10 -
21.10.2020 05:00:00 16,0 12,5 16 9 26 14 ESE 1023,9 10 -
21.10.2020 04:00:00 16,0 11,8 11 6 - - ESE 1024,0 10 -
21.10.2020 03:00:00 16,0 13,3 9 5 - - E 1024,0 10 -
21.10.2020 02:00:00 16,2 13,3 11 6 - - E 1024,1 10 -
21.10.2020 01:00:00 16,4 12,4 9 5 - - ENE 1024,0 10 -
21.10.2020 00:00:00 16,4 13,0 8 4 - - ENE 1024,1 10 -
20.10.2020 23:00:00 16,6 13,1 8 4 - - E 1024,6 10 -
20.10.2020 22:00:00 16,8 13,9 5 3 - - ENE 1024,8 10 -
20.10.2020 21:00:00 18,8 14,9 4 2 - - N 1024,9 10 -

tt = temperature
td = dewpoint
ff = wind speed
fx = gusts
dd = wind direction
ppp = reduced air pressure
vv = visibility
sd = sunshine duration

Next stations